Miscellaneous Local Product
Issued by NWS Hastings, NE

Home | Current Version | Previous Version | Graphics & Text | Print | Product List | Glossary On
Versions: 1 2 3 4 5 6 7 8 9 10 11 12 13 14 15 16 17 18 19 20 21 22 23 24 25 26 27 28 29 30 31 32 33 34 35 36 37 38 39 40 41 42 43 44 45 46 47 48 49 50
000
AXUS43 KGID 011702
MISGRI

GID CWA HOURLY WEATHER ROUNDUP
NATIONAL WEATHER SERVICE HASTINGS NE
1200 PM CDT TUE SEP 01 2015

NOTE: "FAIR" INDICATES FEW OR NO CLOUDS BELOW 12,000 FEET WITH NO
SIGNIFICANT WEATHER AND/OR OBSTRUCTIONS TO VISIBILITY.

...SOUTH CENTRAL NEBRASKA...

CITY           SKY/WX    TMP DP  RH WIND       PRES   REMARKS
GRAND ISLAND   MOSUNNY   84  63  49 S13       29.94F
HASTINGS       MOSUNNY   83  64  52 S15       29.95F
KEARNEY        SUNNY     82  61  47 S15       29.94S
ORD            PTSUNNY   84  63  49 NE6       29.91S
YORK           MOSUNNY   82  68  61 SW14      29.95F
AURORA         MOSUNNY   82  64  55 SW14      29.95S
LEXINGTON      MOSUNNY   80  64  58 CALM      29.95S
HOLDREGE       MOSUNNY   81  58  45 S7        29.95F
HEBRON         SUNNY     86  62  44 S16G24    29.95F

...NEBRASKA PANHANDLE...

CITY           SKY/WX    TMP DP  RH WIND       PRES   REMARKS
CHADRON        SUNNY     87  45  23 W8        29.92S
ALLIANCE       SUNNY     86  48  26 W7        29.98S
SCOTTSBLUFF    SUNNY     80  53  39 W7        30.00S
SIDNEY         SUNNY     87  44  22 NW9       30.03S

...WESTERN AND NORTH CENTRAL NEBRASKA...

CITY           SKY/WX    TMP DP  RH WIND       PRES   REMARKS
VALENTINE      MOSUNNY   80  63  55 E12       29.92S
AINSWORTH      CLOUDY    79  65  63 CALM      29.92F
ONEILL         CLOUDY    76  69  79 CALM      29.93R
BROKEN BOW     MOSUNNY   84  64  50 W3        29.94R
IMPERIAL       SUNNY     82  56  40 W8        29.99F
NORTH PLATTE   MOSUNNY   83  60  45 S3        29.94F
MCCOOK         SUNNY     84  61  45 VRB5      29.96S

...EASTERN NEBRASKA...

CITY           SKY/WX    TMP DP  RH WIND       PRES   REMARKS
NORFOLK        CLOUDY    80  65  59 S15       29.91F
SO SIOUX CITY  MOSUNNY   81  67  62 SW9       29.91F
TEKAMAH        PTSUNNY   82  71  69 S7        29.93S
COLUMBUS       PTSUNNY   81  64  57 SW8       29.93F
ALBION         CLOUDY    77  64  62 S12       29.93S
OMAHA EPPLEY   PTSUNNY   82  68  62 S10       29.95S
OFFUTT AFB     PTSUNNY   81  70  67 S8        29.94F
MILLARD        PTSUNNY   81  69  68 S5        29.95S
LINCOLN        MOSUNNY   85  68  56 SW18G24   29.95F
NEBRASKA CITY  MOSUNNY   85  64  50 SW10      29.97S
BEATRICE       PTSUNNY   84  68  58 S12       29.97S
FALLS CITY     MOSUNNY   85  69  58 S9        29.98S

...NORTHERN KANSAS...

CITY           SKY/WX    TMP DP  RH WIND       PRES   REMARKS
GOODLAND       SUNNY     81  57  43 W6        30.03S
HILL CITY      MOSUNNY   85  61  44 CALM      29.95F
NORTON         SUNNY     81  57  44 S5        29.95S
PHILLIPSBURG   SUNNY     84  63  48 CALM      29.95F
SMITH CENTER   SUNNY     86  61  42 S13       29.95S
HAYS           SUNNY     88  61  40 S21G26    29.95F
RUSSELL        SUNNY     90  60  36 S21G28    29.93F
CONCORDIA      MOSUNNY   87  66  49 S15G24    29.96F
SALINA         MOSUNNY   91  64  40 S17G28    29.96F HX  92
TOPEKA         SUNNY     86  67  52 S13       30.01F



USA.gov is the U.S. government's official web portal to all federal, state and local government web resources and services.